Simultaneous Nadir Overpasses (SNOs) Predictions

Prediction of SNOs between GOES-15 and METOP-A Satellite Orbit:

Table of predicted SNOs for the next 14.0 days since TLE Epoch: 1/29/2022
Index Date Time (GOES-15) GOES-15 Lat,Lon METOP-A Lat,Lon Distance(km) Time Diff (sec)
1 01/31/2022 04:30:18 0.02,-128.29 0.41,-126.36 218.41 80
2 01/31/2022 16:45:29 -0.02,-128.30 0.37,-130.02 195.59 80
3 02/03/2022 04:32:06 -0.02,-128.25 0.30,-126.65 181.54 80
4 02/03/2022 16:47:21 0.02,-128.27 0.46,-130.33 233.98 80
5 02/06/2022 04:33:54 -0.02,-128.22 0.27,-126.95 144.17 80
6 02/06/2022 16:49:12 0.02,-128.23 0.57,-130.63 273.78 80
7 02/09/2022 04:35:39 -0.02,-128.17 0.20,-127.24 106.63 80
8 02/09/2022 16:51:05 0.02,-128.19 0.64,-130.95 314.74 80
